Tacoma, WA

5:38 AM PST on December 18, 2017 (GMT -0800)
McChord Air Force Base

Weather History for KTCM - October, 2013

Change the Weather History Date:

Friday, October 11, 2013

  Actual Average Record
Temperature  
Mean Temperature 48 °F -  
Max Temperature 55 °F 59 °F 88 °F (1991)
Min Temperature 41 °F 41 °F 28 °F (2009)
Degree Days  
Heating Degree Days 17    
Moisture  
Dew Point 47 °F    
Average Humidity 96    
Maximum Humidity 100    
Minimum Humidity 74    
Precipitation  
Precipitation 0.00 in - - ()
Sea Level Pressure  
Sea Level Pressure 30.12 in    
Wind  
Wind Speed 3 mph (South)    
Max Wind Speed 6 mph    
Max Gust Speed -    
Visibility 6 miles    
Events Fog    
Averages and records for this station are not official NWS values.
T = Trace of Precipitation, MM = Missing Value Source: NWS Daily Summary

Daily Weather History Graph

Daily Weather History Graph

Search for Another Location

Airport or City:

Trip Planner

Search our weather history database for the weather conditions in past years. The results will help you decide how hot, cold, wet, or windy it might be!

Date:

Astronomy

Oct. 11, 2013 Rise Set
Actual Time 7:23 AM PDT 6:29 PM PDT
Civil Twilight 6:52 AM PDT 6:59 PM PDT
Nautical Twilight 6:17 AM PDT 7:35 PM PDT
Astronomical Twilight 5:41 AM PDT 8:10 PM PDT
Moon 2:21 PM PDT (10/11) No Moon Set
Length of Visible Light 12h 07m
Length of Day
11h 06m
Waxing Crescent, 48% of the Moon is Illuminated
Oct 11
Waxing Crescent
Oct 11
First Quarter
Oct 18
Full
Oct 26
Last Quarter
Nov 3
New

Hourly Weather History & Observations

Time (PDT) Temp. Windchill Dew Point Humidity Pressure Visibility Wind Dir Wind Speed Gust Speed Precip Events Conditions
12:28 AM 51.8 °F - 51.8 °F 100% 30.08 in 3.0 mi South 3.5 mph - N/A   Overcast
12:58 AM 51.1 °F - 50.9 °F 99% 30.09 in 3.0 mi South 3.5 mph - N/A   Overcast
1:13 AM 50.0 °F - 50.0 °F 100% 30.08 in 3.0 mi South 2.3 mph - N/A   Overcast
1:23 AM 50.0 °F - 50.0 °F 100% 30.08 in 5.0 mi South 3.5 mph - N/A   Overcast
1:28 AM 50.0 °F - 50.0 °F 100% 30.08 in 3.0 mi South 4.6 mph - N/A   Overcast
1:33 AM 50.0 °F - 50.0 °F 100% 30.08 in 3.0 mi South 4.6 mph - N/A   Overcast
1:38 AM 50.0 °F - 50.0 °F 100% 30.09 in 4.0 mi SSW 2.3 mph - N/A   Overcast
1:48 AM 50.0 °F - 50.0 °F 100% 30.09 in 5.0 mi SSW 3.5 mph - N/A   Overcast
1:53 AM 50.0 °F - 50.0 °F 100% 30.09 in 6.0 mi South 3.5 mph - N/A   Overcast
1:58 AM 50.0 °F - 50.0 °F 100% 30.11 in 9.0 mi South 3.5 mph - N/A   Overcast
2:03 AM 50.0 °F - 50.0 °F 100% 30.09 in 7.0 mi South 2.3 mph - N/A   Overcast
2:08 AM 50.0 °F - 50.0 °F 100% 30.09 in 5.0 mi SSE 1.2 mph - N/A   Mostly Cloudy
2:13 AM 50.0 °F - 48.2 °F 94% 30.10 in 4.0 mi Calm Calm - N/A   Mostly Cloudy
2:28 AM 50.0 °F - 48.2 °F 94% 30.10 in 4.0 mi Calm Calm - N/A   Mostly Cloudy
2:58 AM 50.0 °F - 48.2 °F 94% 30.13 in 4.0 mi South 2.3 mph - N/A   Overcast
3:13 AM 50.0 °F - 48.2 °F 94% 30.11 in 4.0 mi South 3.5 mph - N/A   Overcast
3:58 AM 48.9 °F - 48.7 °F 99% 30.13 in 3.0 mi South 3.5 mph - N/A   Overcast
4:53 AM 48.2 °F - 48.2 °F 100% 30.12 in 4.0 mi South 2.3 mph - N/A   Overcast
4:58 AM 48.7 °F - 48.4 °F 99% 30.14 in 5.0 mi South 2.3 mph - N/A   Overcast
5:13 AM 48.2 °F - 48.2 °F 100% 30.11 in 2.0 mi South 3.5 mph - N/A   Overcast
5:18 AM 48.2 °F - 48.2 °F 100% 30.11 in 1.0 mi South 4.6 mph - N/A   Overcast
5:23 AM 48.2 °F - 46.4 °F 93% 30.12 in 1.0 mi South 4.6 mph - N/A   Overcast
5:28 AM 46.4 °F 43.5 °F 46.4 °F 100% 30.12 in 1.2 mi South 5.8 mph - N/A   Overcast
5:33 AM 46.4 °F 44.3 °F 46.4 °F 100% 30.12 in 1.8 mi South 4.6 mph - N/A   Overcast
5:38 AM 46.4 °F 43.5 °F 46.4 °F 100% 30.12 in 2.5 mi South 5.8 mph - N/A   Overcast
5:43 AM 46.4 °F 43.5 °F 46.4 °F 100% 30.12 in 3.0 mi South 5.8 mph - N/A   Overcast
5:58 AM 46.0 °F - 45.9 °F 99% 30.15 in 3.0 mi South 2.3 mph - N/A   Overcast
6:13 AM 44.6 °F - 44.6 °F 100% 30.12 in 7.0 mi SSW 2.3 mph - N/A   Overcast
6:23 AM 44.6 °F - 44.6 °F 100% 30.12 in 2.5 mi South 2.3 mph - N/A   Overcast
6:28 AM 44.6 °F - 44.6 °F 100% 30.12 in 2.0 mi South 2.3 mph - N/A   Overcast
6:33 AM 44.6 °F - 44.6 °F 100% 30.13 in 1.8 mi South 2.3 mph - N/A   Mostly Cloudy
6:38 AM 44.6 °F - 44.6 °F 100% 30.12 in 2.5 mi South 2.3 mph - N/A   Mostly Cloudy
6:43 AM 44.6 °F - 44.6 °F 100% 30.12 in 2.0 mi South 1.2 mph - N/A   Mostly Cloudy
6:48 AM 44.6 °F - 44.6 °F 100% 30.13 in 1.2 mi SSW 1.2 mph - N/A   Scattered Clouds
6:53 AM 44.6 °F - 44.6 °F 100% 30.13 in 0.8 mi South 2.3 mph - N/A   Partly Cloudy
6:58 AM 44.6 °F - 44.6 °F 100% 30.15 in 0.5 mi SSW 2.3 mph - N/A Fog Fog
7:03 AM 44.6 °F 43.1 °F 44.6 °F 100% 30.13 in 0.5 mi SSW 3.5 mph - N/A Fog Fog
7:08 AM 42.8 °F 40.1 °F 42.8 °F 100% 30.13 in 0.5 mi SSW 4.6 mph - N/A Fog Fog
7:13 AM 42.8 °F 39.3 °F 42.8 °F 100% 30.13 in 10.0 mi South 5.8 mph - N/A   Overcast
7:58 AM 41.9 °F 38.2 °F 41.5 °F 99% 30.15 in 10.0 mi South 5.8 mph - N/A   Clear
8:23 AM 42.8 °F - 42.8 °F 100% 30.14 in 10.0 mi SE 1.2 mph - N/A   Mostly Cloudy
8:58 AM 46.2 °F - 45.9 °F 99% 30.16 in 10.0 mi Calm Calm - N/A   Mostly Cloudy
9:03 AM 46.4 °F - 46.4 °F 100% 30.14 in 10.0 mi Calm Calm - N/A   Scattered Clouds
9:58 AM 48.7 °F - 46.2 °F 91% 30.17 in 10.0 mi SSW 2.3 mph - N/A   Clear
10:58 AM 52.9 °F - 47.1 °F 81% 30.17 in 10.0 mi Variable 1.2 mph - N/A   Clear
11:58 AM 54.7 °F - 47.7 °F 77% 30.16 in 10.0 mi West 3.5 mph - N/A   Clear
12:58 PM 55.2 °F - 47.1 °F 74% 30.16 in 10.0 mi Variable 5.8 mph - N/A   Partly Cloudy
1:58 PM 55.2 °F - 47.8 °F 76% 30.16 in 10.0 mi Variable 2.3 mph - N/A   Scattered Clouds
2:58 PM 54.9 °F - 47.7 °F 77% 30.14 in 10.0 mi West 3.5 mph - N/A   Mostly Cloudy
3:58 PM 54.7 °F - 47.3 °F 76% 30.14 in 10.0 mi WSW 3.5 mph - N/A   Overcast
4:58 PM 54.9 °F - 47.7 °F 77% 30.14 in 10.0 mi SSW 3.5 mph - N/A   Overcast
5:58 PM 54.1 °F - 49.3 °F 84% 30.12 in 10.0 mi South 4.6 mph - N/A   Overcast
6:58 PM 51.8 °F - 49.3 °F 91% 30.13 in 10.0 mi South 3.5 mph - N/A   Overcast
7:58 PM 49.6 °F - 48.9 °F 97% 30.11 in 10.0 mi SSE 2.3 mph - N/A   Overcast
8:58 PM 46.6 °F - 46.4 °F 99% 30.12 in 10.0 mi SE 2.3 mph - N/A   Overcast
9:13 PM 46.4 °F - 46.4 °F 100% 30.10 in 10.0 mi SSE 2.3 mph - N/A   Overcast
9:18 PM 48.2 °F - 46.4 °F 93% 30.10 in 10.0 mi SSE 2.3 mph - N/A   Overcast
9:23 PM 48.2 °F - 48.2 °F 100% 30.10 in 10.0 mi SE 2.3 mph - N/A   Overcast
9:28 PM 48.2 °F - 46.4 °F 93% 30.10 in 10.0 mi SSE 2.3 mph - N/A   Overcast
9:58 PM 48.2 °F - 47.8 °F 99% 30.12 in 10.0 mi Variable 3.5 mph - N/A   Overcast
10:58 PM 48.6 °F - 48.2 °F 99% 30.11 in 10.0 mi South 3.5 mph - N/A   Overcast
11:58 PM 47.8 °F - 47.7 °F 99% 30.11 in 9.0 mi South 1.2 mph - N/A   Overcast